Dallas/Ft Worth, TX

5:09 AM CST on December 15, 2017 (GMT -0600)
Dallas-Fort Worth International

Weather History for KDFW - December, 2012

Change the Weather History Date:

Saturday, December 1, 2012

  Actual Average Record
Temperature  
Mean Temperature 74 °F 50 °F  
Max Temperature 83 °F 61 °F 83 °F (1950)
Min Temperature 64 °F 40 °F 24 °F (1985)
Degree Days  
Heating Degree Days 0 15  
Month to date heating degree days 0 15  
Since 1 July heating degree days 288 369  
Cooling Degree Days 9 0  
Month to date cooling degree days 9 0  
Year to date cooling degree days 3332 2752  
Growing Degree Days 23 (Base 50)    
Moisture  
Dew Point 61 °F    
Average Humidity 68    
Maximum Humidity 93    
Minimum Humidity 43    
Precipitation  
Precipitation 0.00 in 0.08 in 2.24 in (1914)
Month to date precipitation 0.00 0.08  
Year to date precipitation 29.31 33.67  
Snow  
Snow 0.00 in 0.00 in 0.00 in ()
Month to date snowfall 0.0 0.0  
Since 1 July snowfall 0.0 T  
Snow Depth 0.00 in    
Sea Level Pressure  
Sea Level Pressure 29.98 in    
Wind  
Wind Speed 18 mph (South)    
Max Wind Speed 28 mph    
Max Gust Speed 35 mph    
Visibility 10 miles    
Events      
T = Trace of Precipitation, MM = Missing Value Source: NWS Daily Summary

Daily Weather History Graph

Daily Weather History Graph

Search for Another Location

Airport or City:

Trip Planner

Search our weather history database for the weather conditions in past years. The results will help you decide how hot, cold, wet, or windy it might be!

Date:

Astronomy

Dec. 01, 2012 Rise Set
Actual Time 7:13 AM CST 5:21 PM CST
Civil Twilight 6:46 AM CST 5:48 PM CST
Nautical Twilight 6:15 AM CST 6:18 PM CST
Astronomical Twilight 5:45 AM CST 6:48 PM CST
Moon 8:09 PM CST (12/1) 9:28 AM CST (12/1)
Length of Visible Light 11h 02m
Length of Day
10h 08m
Waning Gibbous, 91% of the Moon is Illuminated
Dec 1
Waning Gibbous
Dec 6
Last Quarter
Dec 13
New
Dec 19
First Quarter
Dec 28
Full

Hourly Weather History & Observations

Time (CST) Temp. Heat Index Dew Point Humidity Pressure Visibility Wind Dir Wind Speed Gust Speed Precip Events Conditions
12:43 AM 64.4 °F - 60.8 °F 88% 30.04 in 10.0 mi South 12.7 mph - N/A   Mostly Cloudy
12:53 AM 64.9 °F - 61.0 °F 87% 30.02 in 10.0 mi South 15.0 mph - N/A   Mostly Cloudy
1:53 AM 64.4 °F - 60.8 °F 88% 30.03 in 10.0 mi South 10.4 mph - N/A   Overcast
2:53 AM 66.0 °F - 62.1 °F 87% 30.01 in 10.0 mi South 12.7 mph 23.0 mph N/A   Mostly Cloudy
3:53 AM 66.0 °F - 62.1 °F 87% 30.00 in 10.0 mi South 17.3 mph - N/A   Mostly Cloudy
4:53 AM 66.2 °F - 62.6 °F 88% 30.02 in 10.0 mi South 20.7 mph 27.6 mph N/A   Overcast
5:53 AM 64.9 °F - 62.1 °F 90% 30.01 in 10.0 mi South 16.1 mph - N/A   Mostly Cloudy
6:53 AM 64.9 °F - 62.1 °F 90% 30.01 in 10.0 mi South 10.4 mph - N/A   Mostly Cloudy
7:42 AM 66.2 °F - 62.6 °F 88% 30.04 in 9.0 mi South 13.8 mph - N/A   Overcast
7:53 AM 66.0 °F - 63.0 °F 90% 30.02 in 9.0 mi South 15.0 mph - N/A   Overcast
8:09 AM 66.2 °F - 62.6 °F 88% 30.04 in 8.0 mi South 13.8 mph - N/A   Mostly Cloudy
8:34 AM 68.0 °F - 62.6 °F 83% 30.05 in 10.0 mi South 13.8 mph - N/A   Mostly Cloudy
8:53 AM 68.0 °F - 63.0 °F 84% 30.03 in 10.0 mi South 19.6 mph - N/A   Overcast
9:53 AM 72.0 °F - 63.0 °F 73% 30.03 in 10.0 mi South 21.9 mph 26.5 mph N/A   Mostly Cloudy
10:22 AM 73.4 °F - 62.6 °F 69% 30.04 in 10.0 mi South 21.9 mph 28.8 mph N/A   Mostly Cloudy
10:53 AM 73.9 °F - 63.0 °F 68% 30.02 in 10.0 mi SSW 18.4 mph - N/A   Mostly Cloudy
11:53 AM 78.1 °F - 61.0 °F 56% 29.99 in 10.0 mi South 25.3 mph - N/A   Mostly Cloudy
12:53 PM 79.0 °F - 60.1 °F 52% 29.95 in 10.0 mi South 25.3 mph 31.1 mph N/A   Mostly Cloudy
1:53 PM 81.0 °F 81.3 °F 59.0 °F 47% 29.92 in 10.0 mi South 25.3 mph 28.8 mph N/A   Scattered Clouds
2:53 PM 82.0 °F 82.0 °F 57.9 °F 44% 29.91 in 10.0 mi SSW 23.0 mph 28.8 mph N/A   Scattered Clouds
3:53 PM 82.0 °F 82.0 °F 57.9 °F 44% 29.90 in 10.0 mi South 23.0 mph 28.8 mph N/A   Scattered Clouds
4:53 PM 80.1 °F 80.6 °F 57.9 °F 47% 29.91 in 10.0 mi South 19.6 mph 26.5 mph N/A   Scattered Clouds
5:53 PM 77.0 °F - 59.0 °F 54% 29.92 in 10.0 mi South 13.8 mph - N/A   Scattered Clouds
6:53 PM 75.9 °F - 59.0 °F 56% 29.92 in 10.0 mi South 15.0 mph - N/A   Scattered Clouds
7:53 PM 73.9 °F - 59.0 °F 59% 29.93 in 10.0 mi South 15.0 mph - N/A   Scattered Clouds
8:53 PM 73.9 °F - 57.9 °F 57% 29.94 in 10.0 mi SSW 19.6 mph - N/A   Scattered Clouds
9:53 PM 73.0 °F - 59.0 °F 61% 29.96 in 10.0 mi SSW 15.0 mph - N/A   Partly Cloudy
10:53 PM 70.0 °F - 59.0 °F 68% 29.97 in 10.0 mi South 13.8 mph - N/A   Scattered Clouds
11:53 PM 69.1 °F - 59.0 °F 70% 29.98 in 10.0 mi South 17.3 mph - N/A   Scattered Clouds